Regional Weather Roundup
Issued by NWS

Home | Current Version | Previous Version | Text Only | Print | Product List | Glossary On
Versions: 1 2 3 4 5 6 7 8 9 10 11 12 13 14 15 16 17 18 19 20 21 22 23 24 25 26 27 28 29 30 31 32 33 34 35 36 37 38 39 40 41 42 43 44 45 46 47 48
000
ASUS43 KDMX 210507
RWRIA

WEATHER ROUNDUP FOR IOWA
NATIONAL WEATHER SERVICE DES MOINES IA
1200 AM CDT THU AUG 21 2014

NOTE: "FAIR" INDICATES FEW OR NO CLOUDS BELOW 12,000 FEET WITH NO
SIGNIFICANT WEATHER AND/OR OBSTRUCTIONS TO VISIBILITY.

* - THESE STATIONS ARE NOT NWS STATIONS...THUS NOT UNDER NWS
QUALITY CONTROL.  THEY ALSO DO NOT REPORT WEATHER SUCH
AS PRECIPITATION OR FOG.

IAZ001>003-012>014-020>022-031>034-043>046-210600-
   NORTHWEST IOWA

CITY           SKY/WX    TMP DP  RH WIND       PRES   REMARKS
CARROLL *      CLEAR     72  72 100 SE3       29.82F FOG
CHEROKEE *     CLEAR     73  73 100 SE5       29.79F
DENISON *      CLEAR     77  75  94 S13G22    29.78F
LE MARS *      CLEAR     77  73  88 SE9G16    29.76F
ORANGE CITY *  CLEAR     75  72  88 SE5       29.77F
SHELDON *      CLEAR     73  72  94 SE12G17   29.77F
SIOUX CITY     PTCLDY    77  73  87 SE9       29.75F
SPENCER        PTCLDY    72  70  93 SE8       29.80F
STORM LAKE *   PTCLDY    72  72 100 SE7       29.82F FOG
$$

IAZ055>058-069>071-079>083-090>094-210600-
   SOUTHWEST IOWA

CITY           SKY/WX    TMP DP  RH WIND       PRES   REMARKS
ATLANTIC *     CLEAR     79  73  83 VRB6      29.82S HX  82
AUDUBON *      CLEAR     79  75  89 S5        29.84F HX  82
CLARINDA *     CLEAR     79  73  83 S9        29.85R HX  82
COUNCIL BLFS * MOCLDY    79  75  89 SE12G17   29.79S HX  82
CRESTON *      MOCLDY    77  73  88 S12       29.87S
HARLAN  *      CLEAR     77  75  94 S7        29.84F
LAMONI         CLEAR     79  72  79 S10       29.88R HX  82
RED OAK *      CLEAR     79  73  83 S9        29.82S HX  82
SHENANDOAH *   PTCLDY    81  73  78 S13       29.82R HX  85
$$

IAZ047>049-059>061-072>074-084-210600-
   CENTRAL IOWA

CITY           SKY/WX    TMP DP  RH WIND       PRES   REMARKS
AMES           CLEAR     70  70 100 SE3       29.85S FOG
ANKENY *         N/A     73  73 100 SE5       29.86R
CHARITON *     MOCLDY    77  73  88 S8        29.88R
DES MOINES     PTCLDY    77  73  87 SE6       29.85R
GRINNELL*      CLEAR     73  72  94 SE7       29.89S
KNOXVILLE *    CLEAR     75  72  88 SE5       29.86S
MARSHALLTOWN   CLEAR     71  70  96 SE8       29.87S
PELLA *        CLEAR     74  73  96 SE6       29.89R
PERRY *          N/A     72  72 100 SE6       29.84S
$$

IAZ004>006-015-016-023>025-035-036-210600-
   NORTH CENTRAL IOWA

CITY           SKY/WX    TMP DP  RH WIND       PRES   REMARKS
ALGONA *       CLEAR     70  70 100 SE7       29.84S
CLARION *      CLEAR     70  70 100 SE10      29.85S
ESTHERVILLE    CLOUDY    69  68  96 SE8       29.82F
FORT DODGE *   PTCLDY    72  70  94 SE7       29.85S
MASON CITY     CLOUDY    68  67  96 SE7       29.89F
FOREST CITY *  CLEAR     70  70 100 E6        29.87S
IOWA FALLS *     N/A     68  66  94 E5        29.89S
$$

IAZ007>011-017>019-026>030-037>042-050>054-066-210600-
   NORTHEAST IOWA

CITY           SKY/WX    TMP DP  RH WIND       PRES   REMARKS
CEDAR RAPIDS   CLEAR     68  68 100 E5        29.91R
CHARLES CITY * MOCLDY    70  66  88 SE8       29.90S
CLINTON *      CLOUDY    70  66  88 E6        29.96S
DECORAH *      MOCLDY    68  66  94 SE5       29.91R
DUBUQUE        PTCLDY    69  66  90 SE3       29.95R
MONTICELLO *   CLOUDY    70  70 100 CALM      29.93R
OELWEIN *      CLOUDY    70  68  94 SE8       29.92S
WATERLOO       PTCLDY    69  67  93 SE8       29.89R
$$

IAZ064-065-067-068-078-210600-
   EAST CENTRAL IOWA

CITY           SKY/WX    TMP DP  RH WIND       PRES   REMARKS
DAVENPORT      PTCLDY    69  67  93 E5        29.93S
IOWA CITY      CLEAR     71  70  96 CALM      29.92R
MT. PLEASANT * CLEAR     72  70  94 E3        29.91R FOG
MUSCATINE *    CLEAR     68  66  94 CALM      29.91R
QUAD CITIES    CLEAR     71  69  93 E7        29.92S
$$

IAZ062-063-075>077-085>089-095>099-210600-
   SOUTHEAST IOWA

CITY           SKY/WX    TMP DP  RH WIND       PRES   REMARKS
BURLINGTON     CLEAR     76  74  93 S5        29.91R
FAIRFIELD *    CLEAR     72  72 100 E5        29.90S FOG
FORT MADISON * CLEAR     77  77 100 S6        29.92R
KEOKUK *       CLEAR     77  75  94 S7        29.90S
OSKALOOSA *      N/A     73  72  94 SE6       29.89R
CENTERVILLE *  CLEAR     75  75 100 S6        29.91R
OTTUMWA        CLEAR     73  72  96 SE5       29.89R
WASHINGTON *   CLEAR     72  72 100 SE6       29.90S
$$

ABBREVIATIONS USED IN REMARKS
   TC - TEMPERATURES IN CELSIUS
  WCI - WIND CHILL INDEX
   HX - HEAT INDEX
  VSB - VISIBILITY
$$



USA.gov is the U.S. government's official web portal to all federal, state and local government web resources and services.